Weather History for Muskegon, MI

Change the Weather History Date:

Wednesday, January 1, 2014

  Actual Average Record
Temperature  
Mean Temperature 13 °F 27 °F  
Max Temperature 15 °F 32 °F 57 °F (2011)
Min Temperature 11 °F 22 °F -9 °F (1964)
Degree Days  
Heating Degree Days 52 38  
Month to date heating degree days 52 38  
Since 1 July heating degree days 2516 2484  
Cooling Degree Days 0 0  
Month to date cooling degree days 0 0  
Year to date cooling degree days 0 0  
Moisture  
Dew Point 1 °F    
Average Humidity 61    
Maximum Humidity 67    
Minimum Humidity 55    
Precipitation  
Precipitation T in 0.07 in 0.68 in (1985)
Month to date precipitation T 0.07  
Year to date precipitation T 0.07  
Snow  
Snow T in 0.90 in 6.60 in (1948)
Month to date snowfall T 0.9  
Since 1 July snowfall 48.1 36.0  
Snow Depth 12.00 in    
Sea Level Pressure  
Sea Level Pressure 30.36 in    
Wind  
Wind Speed 10 mph (ENE)    
Max Wind Speed 16 mph    
Max Gust Speed 21 mph    
Visibility 10 miles    
Events Snow    
T = Trace of Precipitation, MM = Missing Value Source: NWS Daily Summary

Daily Weather History Graph

Daily Weather History Graph

Search for Another Location

Airport:

Trip Planner

Search our weather history database for the weather conditions in past years. The results will help you decide how hot, cold, wet, or windy it might be!

Date:

Astronomy

Jan. 01, 2014 Rise Set
Actual Time 8:16 AM EST 5:20 PM EST
Civil Twilight 7:44 AM EST 5:52 PM EST
Nautical Twilight 7:08 AM EST 6:28 PM EST
Astronomical Twilight 6:34 AM EST 7:03 PM EST
Moon 8:04 AM EST (1/1) 6:06 PM EST (1/1)
Length of Visible Light 10h 08m
Length of Day
9h 03m
New Moon, 0% of the Moon is Illuminated
Jan 1
New Moon
Jan 7
First Quarter
Jan 15
Full
Jan 24
Last Quarter
Jan 30
New

Hourly Weather History & Observations

Time (EST) Temp. Windchill Dew Point Humidity Pressure Visibility Wind Dir Wind Speed Gust Speed Precip Events Conditions
12:55 AM 14.0 °F 2.9 °F 3.9 °F 64% 30.36 in 10.0 mi NNE 8.1 mph - N/A   Overcast
1:55 AM 12.9 °F 3.8 °F 3.9 °F 67% 30.35 in 10.0 mi NE 5.8 mph - N/A   Overcast
2:14 AM 12.2 °F 1.7 °F 3.2 °F 67% 30.31 in 10.0 mi NE 6.9 mph - N/A   Overcast
2:35 AM 12.2 °F 2.9 °F 3.2 °F 67% 30.31 in 10.0 mi NE 5.8 mph - N/A   Overcast
2:55 AM 12.0 °F 0.5 °F 3.0 °F 67% 30.35 in 10.0 mi NE 8.1 mph - N/A   Overcast
3:55 AM 12.0 °F 0.5 °F 3.0 °F 67% 30.36 in 10.0 mi ENE 8.1 mph - N/A   Overcast
4:55 AM 12.0 °F 1.5 °F 1.9 °F 64% 30.36 in 10.0 mi ENE 6.9 mph - N/A   Overcast
5:55 AM 10.9 °F -1.8 °F 1.9 °F 67% 30.38 in 10.0 mi ENE 9.2 mph - N/A   Mostly Cloudy
6:55 AM 10.9 °F -0.8 °F 1.9 °F 67% 30.39 in 10.0 mi ENE 8.1 mph - N/A   Overcast
7:55 AM 10.9 °F -1.8 °F 1.0 °F 64% 30.40 in 10.0 mi ENE 9.2 mph - N/A   Overcast
8:55 AM 10.9 °F -1.8 °F -0.0 °F 61% 30.40 in 10.0 mi East 9.2 mph - N/A   Overcast
9:55 AM 10.9 °F -2.6 °F -0.0 °F 61% 30.42 in 10.0 mi East 10.4 mph - N/A   Overcast
10:55 AM 10.9 °F 0.2 °F -0.0 °F 61% 30.43 in 10.0 mi NE 6.9 mph - N/A   Overcast
11:55 AM 12.0 °F -2.7 °F -0.0 °F 59% 30.41 in 10.0 mi ENE 12.7 mph - N/A   Overcast
12:55 PM 12.9 °F -1.6 °F -0.0 °F 56% 30.38 in 10.0 mi ENE 12.7 mph - N/A   Overcast
1:55 PM 14.0 °F 0.5 °F -0.9 °F 52% 30.36 in 10.0 mi East 11.5 mph - N/A   Overcast
2:55 PM 14.0 °F 1.2 °F -0.0 °F 54% 30.35 in 10.0 mi East 10.4 mph - N/A   Mostly Cloudy
3:55 PM 14.0 °F -0.8 °F -0.0 °F 54% 30.35 in 10.0 mi ENE 13.8 mph - N/A   Overcast
4:55 PM 14.0 °F -0.2 °F 1.0 °F 56% 30.35 in 10.0 mi ENE 12.7 mph - N/A   Overcast
5:55 PM 14.0 °F 0.5 °F 1.0 °F 56% 30.35 in 10.0 mi ENE 11.5 mph - N/A   Overcast
6:55 PM 14.0 °F -0.2 °F -0.0 °F 54% 30.35 in 10.0 mi NE 12.7 mph 20.7 mph N/A   Overcast
7:55 PM 12.9 °F -0.2 °F -0.0 °F 56% 30.35 in 10.0 mi NE 10.4 mph - N/A   Overcast
8:55 PM 12.9 °F -0.2 °F -0.0 °F 56% 30.34 in 10.0 mi NE 10.4 mph - N/A   Overcast
9:55 PM 12.9 °F 0.7 °F -0.0 °F 56% 30.33 in 10.0 mi ENE 9.2 mph - 0.00 in Snow Light Snow
10:55 PM 12.9 °F -0.9 °F 1.0 °F 59% 30.32 in 9.0 mi ENE 11.5 mph - 0.00 in Snow Light Snow
11:55 PM 12.9 °F 0.7 °F 3.0 °F 65% 30.30 in 10.0 mi ENE 9.2 mph - 0.00 in   Overcast